TimeEDT,TemperatureF,Dew PointF,Humidity,Sea Level PressureIn,VisibilityMPH,Wind Direction,Wind SpeedMPH,Gust SpeedMPH,PrecipitationIn,Events,Conditions,WindDirDegrees,DateUTC
12:01 AM,55.4,53.6,94,30.18,0.8,SE,8.1,-,N/A,,Mist,140,2013-05-19 04:01:00
12:08 AM,55.4,53.6,94,30.18,1.0,SE,8.1,-,N/A,,Mist,140,2013-05-19 04:08:00
12:54 AM,54.0,54.0,100,30.16,0.8,SSE,6.9,-,N/A,,Mist,150,2013-05-19 04:54:00
1:54 AM,54.0,53.1,97,30.14,0.8,SE,8.1,-,N/A,,Mist,140,2013-05-19 05:54:00
2:54 AM,53.1,53.1,100,30.14,1.0,SE,8.1,-,N/A,,Mist,140,2013-05-19 06:54:00
3:13 AM,53.6,53.6,100,30.15,2.0,SE,8.1,-,N/A,,Overcast,140,2013-05-19 07:13:00
3:27 AM,53.6,53.6,100,30.15,1.5,SSE,4.6,-,N/A,,Overcast,150,2013-05-19 07:27:00
3:54 AM,53.1,53.1,100,30.14,0.8,SE,6.9,-,N/A,,Mist,140,2013-05-19 07:54:00
4:54 AM,53.1,53.1,100,30.14,0.5,ESE,5.8,-,N/A,Fog,Fog,120,2013-05-19 08:54:00
5:54 AM,53.1,53.1,100,30.15,0.5,ESE,6.9,-,N/A,Fog,Fog,120,2013-05-19 09:54:00
6:30 AM,53.6,53.6,100,30.17,0.2,SE,5.8,-,N/A,Fog,Fog,130,2013-05-19 10:30:00
6:54 AM,53.1,53.1,100,30.17,0.2,ESE,4.6,-,N/A,Fog,Fog,110,2013-05-19 10:54:00
7:37 AM,53.6,53.6,100,30.18,1.0,ESE,3.5,-,N/A,,Mist,110,2013-05-19 11:37:00
7:51 AM,53.6,53.6,100,30.18,3.0,SSE,3.5,-,N/A,,Overcast,150,2013-05-19 11:51:00
8:19 AM,55.4,53.6,94,30.19,8.0,SSE,5.8,-,N/A,,Overcast,150,2013-05-19 12:19:00
8:54 AM,55.0,54.0,96,30.19,10.0,SE,6.9,-,N/A,,Overcast,140,2013-05-19 12:54:00
9:22 AM,57.2,53.6,88,30.19,10.0,SSE,6.9,-,N/A,,Overcast,150,2013-05-19 13:22:00
9:54 AM,57.0,54.0,89,30.19,10.0,SE,6.9,-,N/A,,Overcast,140,2013-05-19 13:54:00
10:54 AM,57.9,55.0,90,30.18,10.0,SSE,8.1,-,N/A,,Overcast,160,2013-05-19 14:54:00
11:54 AM,59.0,55.0,87,30.17,10.0,SE,8.1,-,N/A,,Overcast,140,2013-05-19 15:54:00
12:54 PM,60.1,55.9,86,30.16,10.0,SSE,11.5,-,N/A,,Overcast,150,2013-05-19 16:54:00
1:54 PM,62.1,57.0,84,30.12,10.0,SSE,13.8,19.6,N/A,,Overcast,150,2013-05-19 17:54:00
4:54 PM,59.0,55.9,90,30.11,10.0,SE,5.8,-,N/A,,Overcast,140,2013-05-19 20:54:00
5:26 PM,59.0,57.2,94,30.11,7.0,SSE,8.1,-,N/A,,Overcast,150,2013-05-19 21:26:00
5:54 PM,59.0,55.9,90,30.11,10.0,SE,10.4,-,N/A,,Overcast,140,2013-05-19 21:54:00
6:01 PM,59.0,55.4,88,30.10,10.0,SE,9.2,-,N/A,,Overcast,140,2013-05-19 22:01:00
6:49 PM,57.2,57.2,100,30.11,4.0,SE,5.8,-,N/A,,Overcast,130,2013-05-19 22:49:00
6:54 PM,57.9,57.0,97,30.11,4.0,SE,6.9,-,N/A,,Overcast,140,2013-05-19 22:54:00
7:54 PM,59.0,57.0,93,30.09,3.0,SE,6.9,-,N/A,,Overcast,130,2013-05-19 23:54:00
8:54 PM,59.0,57.0,93,30.12,5.0,SE,8.1,-,N/A,,Overcast,140,2013-05-20 00:54:00
9:13 PM,59.0,57.2,94,30.12,3.0,SE,6.9,-,N/A,,Overcast,130,2013-05-20 01:13:00
9:23 PM,59.0,57.2,94,30.12,2.5,SE,9.2,-,N/A,,Overcast,130,2013-05-20 01:23:00
9:54 PM,59.0,57.9,96,30.13,2.5,SSE,8.1,-,N/A,,Overcast,150,2013-05-20 01:54:00
10:01 PM,59.0,57.2,94,30.13,3.0,SSE,6.9,-,N/A,,Overcast,150,2013-05-20 02:01:00
10:20 PM,59.0,57.2,94,30.14,2.5,SSE,9.2,-,N/A,,Overcast,160,2013-05-20 02:20:00
10:36 PM,59.0,57.2,94,30.14,3.0,SE,6.9,-,N/A,,Overcast,140,2013-05-20 02:36:00
10:54 PM,60.1,57.9,93,30.13,5.0,SE,8.1,-,N/A,,Overcast,140,2013-05-20 02:54:00
11:11 PM,60.8,57.2,88,30.13,4.0,SSE,8.1,-,N/A,,Overcast,150,2013-05-20 03:11:00